Location: Castillon
(43.0896°N, 0.2156°E)
Time: 20:08:21
(UTC+00:00)

Cosmos 2123 Rocket - Pass Details

Date: 16 June 2021
Orbit: 961 x 992 km, 82.9° (Epoch: 02 August)

Event Time Altitude Azimuth Distance (km) Brightness Sun altitude
Exits shadow 21:34:04 21° 161° (SSE) 2,027 5.1 -15.5°
Maximum altitude 21:38:08 55° 92° (E) 1,178 4.2 -16.0°
Drops below altitude 10° 21:44:16 10° 16° (NNE) 2,763 6.9 -16.6°
Sets 21:46:51 0° 13° (NNE) 3,717 7.8 -16.8°
